Terug naar catalogus

STARLINK-1973

ActiefCommunicatieVLEO
NORAD 47628·PAYLOAD·🇺🇸 United States

Gelanceerd Feb 16, 2021 vanaf Cape Canaveral Space Force Station

Loading…

Volgende Passages (komende 24 uur)

TLE

VersSource: CelesTrak SupGP

Epoch: Sep 15, 2026, 01:40 UTC

1 47628C 21012J   26258.06993056  .00000482  00000+0  15497-4 0  2585
2 47628  53.1571 263.6596 0001330  95.6449 336.9627 15.31703820    19

Volg STARLINK-1973 in realtime met AllMySat

Download on the App Store